This is the latest recevied weather packets stored in our database for station/object RN1M-13. If no packets are shown the sender has not sent any weather packets the latest 1 day(s).
| Time | Temp. | Humidity | Pressure | Rain* | Wind** | Luminosity | Snow |
|---|---|---|---|---|---|---|---|
| 1778043504 | 7.78° C | 100% | 1007.3 hPa | - | - | - | - |
| 1778042608 | 7.22° C | 100% | 1007 hPa | - | - | - | - |
| 1778041708 | 7.22° C | 100% | 1006.6 hPa | - | - | - | - |
| 1778040808 | 7.22° C | 100% | 1006.6 hPa | - | - | - | - |
| 1778039908 | 6.67° C | 100% | 1006.3 hPa | - | - | - | - |
| 1778039008 | 7.78° C | 100% | 1006 hPa | - | - | - | - |
| 1778038108 | 6.67° C | 100% | 1005.8 hPa | - | - | - | - |
| 1778037208 | 6.67° C | 100% | 1005.6 hPa | - | - | - | - |
| 1778036308 | 6.67° C | 100% | 1005.4 hPa | - | - | - | - |
| 1778035408 | 6.67° C | 100% | 1005.3 hPa | - | - | - | - |
| 1778033607 | 6.11° C | 100% | 1005 hPa | - | - | - | - |
| 1778032709 | 6.11° C | 100% | 1005 hPa | - | - | - | - |
| 1778031814 | 6.11° C | 100% | 1004.9 hPa | - | - | - | - |
| 1778030914 | 5.56° C | 100% | 1005.1 hPa | - | - | - | - |
| 1778030014 | 6.11° C | 100% | 1004.9 hPa | - | - | - | - |
| 1778029114 | 6.11° C | 100% | 1005 hPa | - | - | - | - |
| 1778028214 | 6.11° C | 100% | 1005.1 hPa | - | - | - | - |
| 1778021020 | 7.22° C | 100% | 1004.9 hPa | - | - | - | - |
| 1778020120 | 7.22° C | 100% | 1004.8 hPa | - | - | - | - |
| 1778019220 | 7.22° C | 100% | 1004.9 hPa | - | - | - | - |
| 1778003026 | 9.44° C | 100% | 1004.1 hPa | - | - | - | - |
| 1778002126 | 9.44° C | 100% | 1004 hPa | - | - | - | - |
| 1778001226 | 10.56° C | 100% | 1004.1 hPa | - | - | - | - |
* Rain since midnight (hover to see other rain measurements)
** Current wind speed in m/s (hover to see current wind gust speed)